Regional Weather Roundup
Issued by NWS

Home | Current Version | Previous Version | Graphics & Text | Print | Product List | Glossary Off
Versions: 1 2 3 4 5 6 7 8 9 10 11 12 13 14 15 16 17 18 19 20 21 22 23 24 25 26 27 28 29 30 31 32 33 34 35 36 37 38 39 40 41 42 43 44 45 46 47 48 49 50

000
ASUS43 KDMX 301406
RWRIA

WEATHER ROUNDUP FOR IOWA
NATIONAL WEATHER SERVICE DES MOINES IA
900 AM CDT SUN APR 30 2017

NOTE: "FAIR" INDICATES FEW OR NO CLOUDS BELOW 12,000 FEET WITH NO
SIGNIFICANT WEATHER AND/OR OBSTRUCTIONS TO VISIBILITY.

* - THESE STATIONS ARE NOT NWS STATIONS...THUS NOT UNDER NWS
QUALITY CONTROL.  THEY ALSO DO NOT REPORT WEATHER SUCH
AS PRECIPITATION OR FOG.

IAZ001>003-012>014-020>022-031>034-043>046-301500-
   NORTHWEST IOWA

CITY           SKY/WX    TMP DP  RH WIND       PRES   REMARKS
CARROLL *      CLOUDY    39  39 100 NE21G28   29.84R WCI  29
CHEROKEE *     LGT RAIN  38  38 100 NE15G22   29.87F WCI  30
DENISON *      CLOUDY    39  37  93 NE23G40   29.83S WCI  29
ORANGE CITY *  LGT RAIN  37  37 100 NE10G22   29.88F WCI  30
SHELDON *      HVY RAIN  37  36  93 NE23      29.89F WCI  26
SIOUX CITY     LGT RAIN  40  38  93 NE15G28   29.87S FOG     WCI  32
SPENCER        LGT RAIN  39  37  92 NE18      29.91S FOG     WCI  30
STORM LAKE *   LGT RAIN  37  36  93 NE28G33   29.85F WCI  25
$$

IAZ055>058-069>071-079>083-090>094-301500-
   SOUTHWEST IOWA

CITY           SKY/WX    TMP DP  RH WIND       PRES   REMARKS
ATLANTIC *     CLOUDY    39  39 100 NE15G22   29.78R FOG     WCI  31
AUDUBON *      CLOUDY    37  36  93 NE23      29.82S FOG     WCI  26
CLARINDA *     CLOUDY    41  41 100 NE18G28   29.72F
COUNCIL BLFS * CLOUDY    39  39 100 NE22G31   29.75F FOG     WCI  29
CRESTON *      RAIN      41  41 100 NE17G24   29.78R VSB 1
HARLAN  *      CLOUDY    39  39 100 NE22G33   29.81F WCI  29
LAMONI         LGT RAIN  42  41  96 NE18G24   29.75R FOG
RED OAK *      HVY RAIN  41  39  93 NE17G26   29.74F
SHENANDOAH *   MIX PCPN  41  39  93 NE21G29   29.68F
$$

IAZ047>049-059>061-072>074-084-301500-
   CENTRAL IOWA

CITY           SKY/WX    TMP DP  RH WIND       PRES   REMARKS
AMES           CLOUDY    41  40  96 E14       29.85R
ANKENY *       CLOUDY    41  39  93 NE14G22   29.83R
BOONE *        CLOUDY    39  39 100 E14G20    29.83R WCI  31
CHARITON *     CLOUDY    43  41  93 NE14G22   29.77R
DES MOINES     DRIZZLE   42  40  92 NE15G21   29.81R
GRINNELL*      CLOUDY    40  40  97 NE20      29.83R FOG     WCI  31
KNOXVILLE *    CLOUDY    43  41  93 E13       29.80R
MARSHALLTOWN   CLOUDY    41  39  93 E22       29.83R
NEWTON *       CLOUDY    41  39  93 NE17G29   29.82R
PELLA *        CLOUDY    42  41  97 E9G16     29.83R
PERRY *        CLOUDY    41  40  95 NE12G17   29.84R
$$

IAZ004>006-015-016-023>025-035-036-301500-
   NORTH CENTRAL IOWA

CITY           SKY/WX    TMP DP  RH WIND       PRES   REMARKS
ALGONA *       MIX PCPN  39  39 100 NE18G26   29.89F VSB 1   WCI  30
CLARION *      CLOUDY    39  39 100 NE20G26   29.87R FOG     WCI  30
ESTHERVILLE    CLOUDY    38  37  97 NE20      29.92S WCI  28
FORT DODGE *   CLOUDY    37  34  87 NE14      29.89R WCI  29
MASON CITY     CLOUDY    40  33  76 NE17      29.90S WCI  31
FOREST CITY *  CLOUDY    39  32  75 NE12G20   29.91R WCI  32
WEBSTER CITY * LGT RAIN  39  37  93 NE13G21   29.85R WCI  32
IOWA FALLS *   LGT RAIN  41  38  90 NE15G23   29.85S
$$

IAZ007>011-017>019-026>030-037>042-050>054-066-301500-
   NORTHEAST IOWA

CITY           SKY/WX    TMP DP  RH WIND       PRES   REMARKS
CEDAR RAPIDS   CLOUDY    42  42 100 NE15      29.82R
CHARLES CITY * CLOUDY    41  36  81 NE23      29.89R
CLINTON *      CLOUDY    42  40  92 NE21      29.81S
DECORAH *      CLOUDY    41  36  81 NE17      29.89S
DUBUQUE        CLOUDY    40  39  97 NE16G25   29.84R FOG     WCI  31
MONTICELLO *   CLOUDY    41  41 100 E14G22    29.82F
OELWEIN *      CLOUDY    41  39  93 E20G29    29.87R
WATERLOO       CLOUDY    41  37  86 NE23      29.88R
$$

IAZ064-065-067-068-078-301500-
   EAST CENTRAL IOWA

CITY           SKY/WX    TMP DP  RH WIND       PRES   REMARKS
DAVENPORT      CLOUDY    42  40  92 NE14      29.81F
IOWA CITY      CLOUDY    44  41  89 NE15G25   29.83R
MT. PLEASANT * CLOUDY    44  44 100 NE16      29.78R
MUSCATINE *    CLOUDY    45  43  93 NE14G21   29.80R
QUAD CITIES    CLOUDY    44  40  85 NE15      29.79F
$$

IAZ062-063-075>077-085>089-095>099-301500-
   SOUTHEAST IOWA

CITY           SKY/WX    TMP DP  RH WIND       PRES   REMARKS
BURLINGTON     CLOUDY    45  45 100 NE13      29.77R
FAIRFIELD *    CLOUDY    45  43  93 E15       29.79R
FORT MADISON * CLOUDY    45  45 100 NE9       29.77R
KEOKUK *       CLOUDY    45  45 100 NE12G18   29.76R FOG
OSKALOOSA *    CLOUDY    43  42  97 E15       29.81R
CENTERVILLE *  CLOUDY    45  43  93 NE5       29.78R
OTTUMWA        CLOUDY    45  44  97 NE17      29.78R
WASHINGTON *   CLOUDY    45  45 100 NE18      29.80R
$$

ABBREVIATIONS USED IN REMARKS
   TC - TEMPERATURES IN CELSIUS
  WCI - WIND CHILL INDEX
   HX - HEAT INDEX
  VSB - VISIBILITY
$$





USA.gov is the U.S. government's official web portal to all federal, state and local government web resources and services.